David Birch

Log

Date Distance Time Pace Comments Action
10/31/21 3,031m 15:00.0 2:28.4 View workout
10/31/21 5,906m 30:00.0 2:32.3 View workout
10/28/21 5,938m 30:00.0 2:31.5 View workout
10/27/21 5,942m 30:00.0 2:31.4 View workout
10/26/21 5,920m 30:00.0 2:32.0 View workout
10/25/21 5,356m 30:00.0 2:48.0

New worst ever by long way

View workout
10/17/21 5,000m 25:00.0 2:30.0 View workout
10/07/21 5,900m 30:00.0 2:32.5 View workout
10/03/21 5,903m 30:00.0 2:32.4

Worst ever.

View workout
10/02/21 6,033m 30:00.0 2:29.1 View workout
09/22/21 6,011m 30:00.0 2:29.7 View workout
09/21/21 2,000m 9:18.4 2:19.6

HR monitor not working properly

View workout
09/18/21 2,000m 9:25.5 2:21.3 View workout
09/15/21 2,000m 9:25.3 2:21.3 View workout
09/12/21 2,000m 9:40.1 2:25.0 View workout
09/04/21 2,000m 9:30.3 2:22.5 View workout
08/25/21 2,000m 9:28.6 2:22.1 View workout
08/23/21 2,000m 9:42.0 2:25.5 View workout
08/09/21 2,000m 9:37.5 2:24.3 View workout
08/05/21 2,000m 9:44.2 2:26.0 View workout